Weather History for KSUU - February, 2013

Change the Weather History Date:

Wednesday, February 13, 2013

  Actual Average Record
Temperature  
Mean Temperature 48 °F -  
Max Temperature 63 °F 56 °F 73 °F (2006)
Min Temperature 32 °F 40 °F 32 °F (2011)
Degree Days  
Heating Degree Days 18    
Moisture  
Dew Point 41 °F    
Average Humidity 82    
Maximum Humidity 100    
Minimum Humidity 47    
Precipitation  
Precipitation 0.00 in - - ()
Sea Level Pressure  
Sea Level Pressure 30.26 in    
Wind  
Wind Speed 4 mph (WSW)    
Max Wind Speed 7 mph    
Max Gust Speed -    
Visibility 10 miles    
Events      
Averages and records for this station are not official NWS values.
T = Trace of Precipitation, MM = Missing Value Source: NWS Daily Summary

Daily Weather History Graph

Daily Weather History Graph

Search for Another Location

Airport or City:

Trip Planner

Search our weather history database for the weather conditions in past years. The results will help you decide how hot, cold, wet, or windy it might be!

Date:

Astronomy

Feb. 13, 2013 Rise Set
Actual Time 7:00 AM PST 5:44 PM PST
Civil Twilight 6:32 AM PST 6:11 PM PST
Nautical Twilight 6:01 AM PST 6:42 PM PST
Astronomical Twilight 5:31 AM PST 7:13 PM PST
Moon 8:36 AM PST (2/13) 9:48 PM PST (2/13)
Length of Visible Light 11h 38m
Length of Day
10h 44m
Waxing Crescent, 14% of the Moon is Illuminated
Feb 13
Waxing Crescent
Feb 17
First Quarter
Feb 25
Full
Mar 4
Last Quarter
Mar 11
New

Hourly Weather History & Observations

Time (PST) Temp. Windchill Dew Point Humidity Pressure Visibility Wind Dir Wind Speed Gust Speed Precip Events Conditions
12:58 AM 35.2 °F 31.2 °F 35.1 °F 99% 30.33 in 10.0 mi Variable 4.6 mph - N/A   Clear
1:58 AM 36.3 °F 31.6 °F 36.1 °F 99% 30.34 in 10.0 mi NNE 5.8 mph - N/A   Clear
2:58 AM 36.0 °F 31.1 °F 35.6 °F 99% 30.33 in 10.0 mi NNE 5.8 mph - N/A   Clear
3:58 AM 34.9 °F - 34.7 °F 99% 30.32 in 10.0 mi North 1.2 mph - N/A   Clear
4:58 AM 35.1 °F 32.2 °F 35.1 °F 100% 30.33 in 10.0 mi North 3.5 mph - N/A   Clear
5:58 AM 33.6 °F - 33.6 °F 100% 30.33 in 10.0 mi Calm Calm - N/A   Clear
6:58 AM 32.4 °F - 32.4 °F 100% 30.35 in 10.0 mi West 1.2 mph - N/A   Clear
11:55 AM 57.9 °F - 43.5 °F 59% 30.32 in 10.0 mi NE 3.5 mph - N/A   Clear
12:55 PM 60.6 °F - 42.4 °F 51% 30.29 in 10.0 mi Calm Calm - N/A   Clear
12:58 PM 60.6 °F - 42.4 °F 51% 30.30 in 10.0 mi SW 5.8 mph - N/A   Clear
1:55 PM 61.5 °F - 41.9 °F 49% 30.25 in 10.0 mi Calm Calm - N/A   Clear
2:55 PM 63.9 °F - 43.0 °F 47% 30.24 in 10.0 mi WSW 3.5 mph - N/A   Clear
3:55 PM 63.0 °F - 43.5 °F 49% 30.22 in 10.0 mi SSW 6.9 mph - N/A   Clear
4:55 PM 61.5 °F - 44.1 °F 53% 30.21 in 10.0 mi SSW 5.8 mph - N/A   Clear
5:55 PM 56.1 °F - 46.2 °F 69% 30.20 in 10.0 mi SW 5.8 mph - N/A   Clear
5:58 PM 56.1 °F - 46.2 °F 69% 30.21 in 10.0 mi SSW 4.6 mph - N/A   Clear
6:58 PM 51.3 °F - 46.6 °F 84% 30.20 in 10.0 mi SW 4.6 mph - N/A   Clear
7:55 PM 47.8 °F - 45.7 °F 92% 30.21 in 10.0 mi WSW 5.8 mph - N/A   Clear
7:58 PM 47.8 °F - 45.7 °F 92% 30.20 in 10.0 mi SSW 3.5 mph - N/A   Clear
8:58 PM 44.1 °F 40.8 °F 43.9 °F 99% 30.21 in 10.0 mi WSW 5.8 mph - N/A   Clear
9:55 PM 41.7 °F 37.3 °F 41.5 °F 99% 30.22 in 10.0 mi WSW 6.9 mph - N/A   Clear
9:58 PM 41.7 °F 37.3 °F 41.5 °F 99% 30.21 in 10.0 mi West 6.9 mph - N/A   Clear
10:58 PM 40.5 °F - 40.3 °F 99% 30.25 in 10.0 mi NE 1.2 mph - N/A   Clear
11:58 PM 39.4 °F - 39.0 °F 99% 30.24 in 10.0 mi Calm Calm - N/A   Clear